(191908) = 2003 SL96 = 2005 EX121

Discovered at Socorro on 2005-03-08 by LINEAR.

Orbit

Orbit type: Main Belt

Note: WebGL enabled browser required.

epoch2024-03-31.0
epoch JD2460400.5
perihelion date2023-02-22.61041
perihelion JD2459998.11041
argument of perihelion (°)176.83626
ascending node (°)262.21928
inclination (°)1.25785
eccentricity0.1617264
perihelion distance (AU)2.0196413
Tisserand w.r.t. Jupiter3.5
ΔV w.r.t. Earth (km/sec)8.9
semimajor axis (AU)2.4092865
mean anomaly (°)106.05176
mean daily motion (°/day)0.26355490
aphelion distance (AU)2.799
period (years)3.74
P-vector [x]0.18984415
P-vector [y]0.90031435
P-vector [z]0.39165453
Q-vector [x]-0.98157330
Q-vector [y]0.18287948
Q-vector [z]0.05539813
absolute magnitude17.3
phase slope0.15
uncertainty0
referenceMPEC 2024-F50
observations used537
oppositions15
arc length (days)8458
first opposition used2001
last opposition used2024
residual rms (arc-secs)0.73
perturbers coarse indicatorM-v
perturbers precise indicator003Ek
first observation date used2001-01-21.0
last observation date used2024-03-19.0
computer nameMPCLINUX
JD of orbit computation2456937.230889
perihelion JD uncertainty (days)4.8395E-05
argument of perihelion uncertainty (°)1.7090E-04
ascending node uncertainty (°)1.7035E-04
inclination uncertainty (°)3.7309E-06
eccentricity uncertainty 3.4844E-08
perihelion distance uncertainty (AU)8.3215E-08
Minimum Orbit Intersection Distances (in AU)
for orbit epoch: 2460400.5, reference: E2024-GD4
Mercury1.7128
Venus1.29925
Earth1.03562
Mars0.44745
Jupiter2.43472
Saturn7.0068
Uranus15.9982
Neptune27.5436

Observations

549 total observations over interval: 2001 01 21.31071 – 2024 03 19.534384
These data are available for download (format description).

Date (UT) J2000 RA J2000 Dec Magn Location Ref
2001 01 21.31071 08 33 14.43 +17 11 31.0 19.1   704 – Lincoln Laboratory ETS, New Mexico MPS 162812
2001 01 21.32591 08 33 13.30 +17 11 32.7 20.0   704 – Lincoln Laboratory ETS, New Mexico MPS 162812
2001 01 21.34106 08 33 12.42 +17 11 35.1 19.7   704 – Lincoln Laboratory ETS, New Mexico MPS 162812
2001 01 21.35622 08 33 11.44 +17 11 38.2 19.5   704 – Lincoln Laboratory ETS, New Mexico MPS 162812
2001 01 21.37136 08 33 10.54 +17 11 39.9 19.7   704 – Lincoln Laboratory ETS, New Mexico MPS 162812
2003 09 19.29932 23 00 56.46 -03 57 07.4 20.5 V 691 – Steward Observatory, Kitt Peak-Spacewatch MPS 85450
2003 09 19.32804 23 00 54.87 -03 57 17.1 20.6 V 691 – Steward Observatory, Kitt Peak-Spacewatch MPS 85450
2003 09 19.35519 23 00 53.35 -03 57 26.7 20.3 V 691 – Steward Observatory, Kitt Peak-Spacewatch MPS 85450
2003 09 21.20022 22 59 16.09 -04 07 55.1 20.6 V 691 – Steward Observatory, Kitt Peak-Spacewatch MPS 85450
2003 09 21.22979 22 59 14.49 -04 08 04.9 20.8 V 691 – Steward Observatory, Kitt Peak-Spacewatch MPS 85450
2003 09 21.25585 22 59 13.06 -04 08 13.8 20.6 V 691 – Steward Observatory, Kitt Peak-Spacewatch MPS 85450
2005 03 08.28899 11 11 14.44 +02 52 14.5 20.0 C 704 – Lincoln Laboratory ETS, New Mexico MPS 294331
2005 03 08.29324 11 11 14.19 +02 52 17.0 19.7   704 – Lincoln Laboratory ETS, New Mexico MPS 129238
2005 03 08.30061 11 11 13.69 +02 52 19.2 19.4 C 704 – Lincoln Laboratory ETS, New Mexico MPS 294331
2005 03 08.30525 11 11 13.56 +02 52 21.4 19.9   704 – Lincoln Laboratory ETS, New Mexico MPS 129239
2005 03 08.31262 11 11 13.00 +02 52 23.3 19.3 C 704 – Lincoln Laboratory ETS, New Mexico MPS 294331
2005 03 08.31688 11 11 12.83 +02 52 25.1 19.6   704 – Lincoln Laboratory ETS, New Mexico MPS 129239
2005 03 08.32858 11 11 12.15 +02 52 29.5 20.3   704 – Lincoln Laboratory ETS, New Mexico MPS 129239
2005 03 08.34021 11 11 11.44 +02 52 33.9 20.0   704 – Lincoln Laboratory ETS, New Mexico MPS 129239
2005 03 11.30690 11 08 23.12 +03 10 25.0 19.4 R G96 – Mt. Lemmon Survey MPS 129239
2005 03 11.31359 11 08 22.73 +03 10 27.6 19.4 R G96 – Mt. Lemmon Survey MPS 129239
2005 03 11.32024 11 08 22.33 +03 10 29.9 19.2 R G96 – Mt. Lemmon Survey MPS 129239
2005 03 11.32693 11 08 21.94 +03 10 32.3 18.2 R G96 – Mt. Lemmon Survey MPS 129239
2005 04 09.16273 10 48 20.58 +05 28 08.0 20.0 R G96 – Mt. Lemmon Survey MPS 131758
2005 04 09.16901 10 48 20.43 +05 28 08.9 20.2 R G96 – Mt. Lemmon Survey MPS 131758
2005 04 09.17529 10 48 20.27 +05 28 10.1 20.5 R G96 – Mt. Lemmon Survey MPS 131758
2005 04 09.18156 10 48 20.14 +05 28 11.3 20.3 R G96 – Mt. Lemmon Survey MPS 131758
2005 04 10.16660 10 48 00.40 +05 30 55.5 20.6 V 691 – Steward Observatory, Kitt Peak-Spacewatch MPS 131758
2005 04 10.18348 10 48 00.06 +05 30 57.8 21.0 V 691 – Steward Observatory, Kitt Peak-Spacewatch MPS 131758
2005 04 10.19967 10 47 59.71 +05 31 00.6 20.8 V 691 – Steward Observatory, Kitt Peak-Spacewatch MPS 131758
2005 05 08.15821 10 49 47.40 +05 41 31.1 20.2 R G96 – Mt. Lemmon Survey MPS 162812
2005 05 08.16721 10 49 47.63 +05 41 30.8 20.4 R G96 – Mt. Lemmon Survey MPS 162812
2005 05 08.17623 10 49 47.81 +05 41 29.8 20.8 R G96 – Mt. Lemmon Survey MPS 162812
2005 05 08.18525 10 49 48.05 +05 41 28.6 20.8 R G96 – Mt. Lemmon Survey MPS 162812
2007 10 04.31094 01 58 07.84 +14 09 49.0   691 – Steward Observatory, Kitt Peak-Spacewatch MPS 218096
2007 10 04.32857 01 58 07.08 +14 09 45.2   691 – Steward Observatory, Kitt Peak-Spacewatch MPS 218096
2007 10 04.34619 01 58 06.30 +14 09 41.1   691 – Steward Observatory, Kitt Peak-Spacewatch MPS 218096
2007 10 06.26946 01 56 42.96 +14 02 19.0 19.8   704 – Lincoln Laboratory ETS, New Mexico MPS 218667
2007 10 06.28024 01 56 42.46 +14 02 16.7 20.3   704 – Lincoln Laboratory ETS, New Mexico MPS 218667
2007 10 06.29106 01 56 41.95 +14 02 14.1 20.0   704 – Lincoln Laboratory ETS, New Mexico MPS 218667
2007 10 06.30186 01 56 41.49 +14 02 11.2 20.3   704 – Lincoln Laboratory ETS, New Mexico MPS 218667
2007 10 06.34895 01 56 39.19 +14 01 58.4 19.6 R 699 – Lowell Observatory-LONEOS MPS 255226
2007 10 06.37070 01 56 38.18 +14 01 54.1   699 – Lowell Observatory-LONEOS MPS 255226
2007 10 06.39241 01 56 37.10 +14 01 48.9   699 – Lowell Observatory-LONEOS MPS 255226
2007 10 06.41417 01 56 36.16 +14 01 43.7   699 – Lowell Observatory-LONEOS MPS 255226
2007 10 08.21202 01 55 13.77 +13 54 15.9 19.6 V 691 – Steward Observatory, Kitt Peak-Spacewatch MPS 218667
2007 10 08.22963 01 55 12.86 +13 54 11.3 19.7 V 691 – Steward Observatory, Kitt Peak-Spacewatch MPS 218667
2007 10 08.24489 01 55 12.13 +13 54 07.6 19.6 V 691 – Steward Observatory, Kitt Peak-Spacewatch MPS 218667
2007 10 08.26955 01 55 11.00 +13 54 01.8 20.0   704 – Lincoln Laboratory ETS, New Mexico MPS 218667
2007 10 08.28054 01 55 10.39 +13 53 59.1 20.3   704 – Lincoln Laboratory ETS, New Mexico MPS 218667
2007 10 08.29160 01 55 09.77 +13 53 56.5 19.9   704 – Lincoln Laboratory ETS, New Mexico MPS 218667
2007 10 11.25734 01 52 44.52 +13 40 32.7 19.9   704 – Lincoln Laboratory ETS, New Mexico MPS 218667
2007 10 11.26090 01 52 44.49 +13 40 30.9 19.4 r 699 – Lowell Observatory-LONEOS MPS 220540
2007 10 11.26837 01 52 43.89 +13 40 30.0 19.7   704 – Lincoln Laboratory ETS, New Mexico MPS 218667
2007 10 11.27939 01 52 43.49 +13 40 29.8 20.2   704 – Lincoln Laboratory ETS, New Mexico MPS 218667
2007 10 11.28646 01 52 43.00 +13 40 23.5 19.4 r 699 – Lowell Observatory-LONEOS MPS 220540
2007 10 11.29056 01 52 42.75 +13 40 23.1 20.7   704 – Lincoln Laboratory ETS, New Mexico MPS 218667
2007 10 11.30161 01 52 42.17 +13 40 20.6 20.1   704 – Lincoln Laboratory ETS, New Mexico MPS 218667
2007 10 11.31207 01 52 41.67 +13 40 16.5 19.3 r 699 – Lowell Observatory-LONEOS MPS 220540
2007 10 11.33767 01 52 40.34 +13 40 09.0 19.0 r 699 – Lowell Observatory-LONEOS MPS 220540
2007 10 12.21404 01 51 55.83 +13 35 57.5 19.4 V 691 – Steward Observatory, Kitt Peak-Spacewatch MPS 220540
2007 10 12.23168 01 51 54.84 +13 35 52.6 20.0 V 691 – Steward Observatory, Kitt Peak-Spacewatch MPS 220540
2007 10 12.24933 01 51 53.90 +13 35 47.8 19.4 V 691 – Steward Observatory, Kitt Peak-Spacewatch MPS 220540
2007 10 12.30554 01 51 50.80 +13 35 32.1 19.9   704 – Lincoln Laboratory ETS, New Mexico MPS 220540
2007 10 12.31679 01 51 50.20 +13 35 28.7 20.4   704 – Lincoln Laboratory ETS, New Mexico MPS 220540
2007 10 12.32799 01 51 49.60 +13 35 25.8 20.3   704 – Lincoln Laboratory ETS, New Mexico MPS 220540
2007 10 12.33920 01 51 49.11 +13 35 21.4 20.3   704 – Lincoln Laboratory ETS, New Mexico MPS 220540
2007 10 12.35040 01 51 48.36 +13 35 19.0 20.5   704 – Lincoln Laboratory ETS, New Mexico MPS 220540
2007 10 13.30354 01 50 58.90 +13 30 37.0 19.4   704 – Lincoln Laboratory ETS, New Mexico MPS 220540
2007 10 13.31484 01 50 58.21 +13 30 34.0 19.7   704 – Lincoln Laboratory ETS, New Mexico MPS 220540
2007 10 13.32618 01 50 57.63 +13 30 30.8 20.4   704 – Lincoln Laboratory ETS, New Mexico MPS 220540
2007 10 13.33751 01 50 57.01 +13 30 27.4 20.1   704 – Lincoln Laboratory ETS, New Mexico MPS 220540
2007 10 13.34885 01 50 56.38 +13 30 23.4 20.0   704 – Lincoln Laboratory ETS, New Mexico MPS 220540
2007 10 16.20685 01 48 23.79 +13 15 41.7 20.3 V 691 – Steward Observatory, Kitt Peak-Spacewatch MPS 220540
2007 10 16.22452 01 48 22.76 +13 15 35.8 19.5 V 691 – Steward Observatory, Kitt Peak-Spacewatch MPS 220540
2007 10 16.24217 01 48 21.80 +13 15 30.5 19.6 V 691 – Steward Observatory, Kitt Peak-Spacewatch MPS 220540
2007 10 20.17500 01 44 44.14 +12 53 59.6 19.3 V 691 – Steward Observatory, Kitt Peak-Spacewatch MPS 222524
2007 10 20.19604 01 44 42.92 +12 53 52.8 19.4 V 691 – Steward Observatory, Kitt Peak-Spacewatch MPS 222524
2007 10 20.21366 01 44 41.87 +12 53 46.9 19.4 V 691 – Steward Observatory, Kitt Peak-Spacewatch MPS 222524
2007 10 20.27178 01 44 38.43 +12 53 27.1 19.3 V 703 – Catalina Sky Survey MPS 222524
2007 10 20.27874 01 44 38.11 +12 53 25.1 19.2 V 703 – Catalina Sky Survey MPS 222524
2007 10 20.28566 01 44 37.68 +12 53 23.4 19.2 V 703 – Catalina Sky Survey MPS 222524
2007 10 20.29257 01 44 37.28 +12 53 20.5 19.4 V 703 – Catalina Sky Survey MPS 222524
2007 10 30.23738 01 35 24.86 +11 55 33.9 19.5 V 703 – Catalina Sky Survey MPS 223454
